| time (UTC) | temp C | wind direction | speed KPH | gust KPH | rain 1hr cm | rain 24hr cm | rain mn cm | humidity % | barometer mb |
| 20260504015717 | 19 | 45 | 3.2 | 8.0 | 0.00 | 0.05 | 0.00 | 53 | 1006.3 |
| 20260504014717 | 18 | 293 | 3.2 | 6.4 | 0.00 | 0.05 | 0.00 | 56 | 1006.5 |
| 20260504013737 | 18 | 293 | 4.8 | 11.3 | 0.00 | 0.05 | 0.00 | 57 | 1006.6 |
| 20260504012717 | 18 | 293 | 1.6 | 4.8 | 0.00 | 0.05 | 0.00 | 57 | 1006.5 |
| 20260504011718 | 18 | 338 | 1.6 | 3.2 | 0.00 | 0.05 | 0.00 | 59 | 1006.6 |
| 20260504010717 | 17 | 45 | 3.2 | 4.8 | 0.00 | 0.05 | 0.00 | 60 | 1006.5 |
| 20260504005717 | 17 | 293 | 4.8 | 11.3 | 0.00 | 0.05 | 0.00 | 61 | 1006.5 |
| 20260504004717 | 17 | 0 | 1.6 | 4.8 | 0.00 | 0.05 | 0.00 | 61 | 1006.5 |
| 20260504003717 | 17 | 270 | 4.8 | 9.7 | 0.00 | 0.05 | 0.00 | 61 | 1006.6 |
| 20260504002737 | 17 | 338 | 3.2 | 4.8 | 0.00 | 0.05 | 0.00 | 65 | 1006.5 |
| 20260504001738 | 17 | 338 | 4.8 | 6.4 | 0.00 | 0.05 | 0.00 | 64 | 1006.6 |
| 20260504000757 | 16 | 0 | 1.6 | 4.8 | 0.00 | 0.05 | 0.00 | 67 | 1006.7 |
| 20260503235717 | 16 | 338 | 3.2 | 4.8 | 0.00 | 0.05 | 0.00 | 74 | 1006.8 |
| 20260503234717 | 14 | 0.0 | 1.6 | 0.00 | 0.05 | 0.00 | 84 | 1006.8 | |
| 20260503233717 | 13 | 0.0 | 0.0 | 0.00 | 0.05 | 0.00 | 87 | 1006.9 | |
| 20260503232718 | 13 | 0.0 | 0.0 | 0.00 | 0.05 | 0.00 | 87 | 1007.1 | |
| 20260503231717 | 13 | 0.0 | 0.0 | 0.00 | 0.05 | 0.00 | 87 | 1007.2 | |
| 20260503230717 | 13 | 0.0 | 0.0 | 0.00 | 0.05 | 0.00 | 87 | 1007.1 | |
| 20260503225737 | 13 | 0.0 | 0.0 | 0.00 | 0.05 | 0.00 | 89 | 1007.1 | |
| 20260503224717 | 12 | 0.0 | 0.0 | 0.00 | 0.05 | 0.00 | 91 | 1007.1 | |
| 20260503223737 | 11 | 0 | 1.6 | 3.2 | 0.00 | 0.05 | 0.00 | 92 | 1007.3 |
| 20260503222718 | 10 | 23 | 1.6 | 4.8 | 0.00 | 0.05 | 0.00 | 92 | 1007.2 |
| 20260503221717 | 10 | 0 | 3.2 | 4.8 | 0.00 | 0.05 | 0.00 | 92 | 1007.2 |
| 20260503220718 | 10 | 0.0 | 1.6 | 0.00 | 0.05 | 0.00 | 92 | 1007.2 | |
| 20260503215717 | 10 | 0 | 1.6 | 3.2 | 0.00 | 0.05 | 0.00 | 92 | 1007.0 |
| 20260503214737 | 10 | 0.0 | 1.6 | 0.00 | 0.05 | 0.00 | 92 | 1007.1 | |
| 20260503213717 | 11 | 0 | 1.6 | 3.2 | 0.00 | 0.05 | 0.00 | 92 | 1006.9 |
| 20260503212737 | 11 | 338 | 1.6 | 3.2 | 0.00 | 0.05 | 0.00 | 92 | 1006.8 |
| 20260503211718 | 10 | 0 | 1.6 | 3.2 | 0.00 | 0.05 | 0.00 | 92 | 1006.6 |
| 20260503210717 | 11 | 0 | 1.6 | 4.8 | 0.00 | 0.05 | 0.00 | 92 | 1006.5 |
| 20260503205717 | 11 | 338 | 1.6 | 3.2 | 0.00 | 0.05 | 0.00 | 92 | 1006.4 |
| 20260503204717 | 11 | 0 | 1.6 | 3.2 | 0.00 | 0.05 | 0.00 | 92 | 1006.4 |
| 20260503203717 | 11 | 0 | 1.6 | 3.2 | 0.00 | 0.05 | 0.00 | 92 | 1006.4 |
| 20260503202717 | 11 | 23 | 3.2 | 3.2 | 0.00 | 0.05 | 0.00 | 91 | 1006.0 |
| 20260503201717 | 11 | 338 | 1.6 | 3.2 | 0.00 | 0.05 | 0.00 | 92 | 1005.8 |
| 20260503200717 | 11 | 0.0 | 0.0 | 0.00 | 0.05 | 0.00 | 92 | 1005.9 | |
| 20260503195737 | 11 | 45 | 3.2 | 4.8 | 0.00 | 0.05 | 0.00 | 92 | 1006.2 |
| 20260503194717 | 11 | 0.0 | 0.0 | 0.00 | 0.05 | 0.00 | 92 | 1006.3 | |
| 20260503193717 | 11 | 0.0 | 1.6 | 0.00 | 0.05 | 0.00 | 91 | 1006.1 | |
| 20260503192717 | 12 | 23 | 1.6 | 1.6 | 0.00 | 0.05 | 0.00 | 91 | 1006.1 |
| 20260503191717 | 12 | 0.0 | 0.0 | 0.00 | 0.05 | 0.00 | 91 | 1006.1 | |
| 20260503190717 | 12 | 23 | 1.6 | 3.2 | 0.00 | 0.05 | 0.00 | 91 | 1006.2 |
| 20260503185717 | 12 | 0.0 | 1.6 | 0.00 | 0.05 | 0.00 | 91 | 1006.2 | |
| 20260503184717 | 12 | 315 | 1.6 | 3.2 | 0.00 | 0.05 | 0.00 | 91 | 1006.0 |
| 20260503183717 | 12 | 0.0 | 0.0 | 0.00 | 0.05 | 0.00 | 91 | 1006.1 | |
| 20260503182717 | 12 | 23 | 1.6 | 4.8 | 0.00 | 0.05 | 0.00 | 91 | 1005.9 |
| 20260503181737 | 12 | 0 | 3.2 | 3.2 | 0.00 | 0.05 | 0.00 | 91 | 1005.8 |
| 20260503180737 | 12 | 0.0 | 0.0 | 0.00 | 0.05 | 0.00 | 91 | 1005.7 | |
| 20260503175717 | 12 | 0.0 | 0.0 | 0.00 | 0.05 | 0.00 | 92 | 1005.6 | |
| 20260503174717 | 12 | 0.0 | 1.6 | 0.00 | 0.05 | 0.00 | 92 | 1005.8 | |
| 20260503173737 | 12 | 0.0 | 1.6 | 0.00 | 0.05 | 0.00 | 92 | 1005.6 | |
| 20260503172717 | 12 | 0.0 | 0.0 | 0.00 | 0.05 | 0.00 | 92 | 1005.7 | |
| 20260503171737 | 12 | 23 | 1.6 | 1.6 | 0.00 | 0.05 | 0.00 | 92 | 1005.6 |
| 20260503170717 | 12 | 0.0 | 0.0 | 0.00 | 0.05 | 0.00 | 92 | 1005.8 | |
| 20260503150737 | 13 | 68 | 3.2 | 3.2 | 0.00 | 0.05 | 0.00 | 92 | 1006.1 |
| 20260503130716 | 14 | 0 | 1.6 | 3.2 | 0.00 | 0.05 | 0.05 | 91 | 1007.0 |
| 20260503110717 | 13 | 23 | 1.6 | 1.6 | 0.03 | 0.05 | 0.05 | 92 | 1006.7 |
| 20260503080716 | 15 | 0.0 | 0.0 | 0.00 | 0.05 | 0.05 | 90 | 1006.3 | |
| 20260503072716 | 15 | 0.0 | 0.0 | 0.05 | 0.05 | 0.05 | 89 | 1006.6 | |
| 20260503071737 | 16 | 0.0 | 0.0 | 0.05 | 0.05 | 0.05 | 88 | 1006.7 | |
| 20260503070716 | 16 | 45 | 1.6 | 4.8 | 0.05 | 0.05 | 0.05 | 87 | 1006.5 |
| 20260503054716 | 17 | 0.0 | 1.6 | 0.00 | 0.00 | 0.00 | 81 | 1006.8 | |
| 20260503053758 | 17 | 0.0 | 0.0 | 0.00 | 0.00 | 0.00 | 81 | 1006.9 | |
| 20260503052718 | 17 | 0.0 | 0.0 | 0.00 | 0.00 | 0.00 | 80 | 1007.1 | |
| 20260503051718 | 17 | 0.0 | 0.0 | 0.00 | 0.00 | 0.00 | 80 | 1007.1 | |
| 20260503050718 | 17 | 0.0 | 0.0 | 0.00 | 0.00 | 0.00 | 79 | 1007.1 | |
| 20260503045718 | 17 | 0.0 | 0.0 | 0.00 | 0.00 | 0.00 | 80 | 1007.4 | |
| 20260503044718 | 17 | 0.0 | 0.0 | 0.00 | 0.00 | 0.00 | 79 | 1007.4 | |
| 20260503043718 | 17 | 0.0 | 0.0 | 0.00 | 0.00 | 0.00 | 79 | 1007.3 | |
| 20260503042737 | 17 | 0.0 | 0.0 | 0.00 | 0.00 | 0.00 | 78 | 1007.5 | |
| 20260503041737 | 17 | 0.0 | 0.0 | 0.00 | 0.00 | 0.00 | 77 | 1007.6 | |
| 20260503040737 | 17 | 158 | 1.6 | 3.2 | 0.00 | 0.00 | 0.00 | 76 | 1008.0 |
| 20260503035717 | 17 | 0.0 | 0.0 | 0.00 | 0.00 | 0.00 | 76 | 1007.9 | |
| 20260503034717 | 17 | 0.0 | 0.0 | 0.00 | 0.00 | 0.00 | 75 | 1008.0 | |
| 20260503033717 | 17 | 0.0 | 0.0 | 0.00 | 0.00 | 0.00 | 75 | 1008.0 | |
| 20260503032717 | 17 | 0.0 | 1.6 | 0.00 | 0.00 | 0.00 | 74 | 1008.2 | |
| 20260503031717 | 17 | 203 | 1.6 | 3.2 | 0.00 | 0.00 | 0.00 | 74 | 1008.3 |
| 20260503030717 | 17 | 0.0 | 3.2 | 0.00 | 0.00 | 0.00 | 74 | 1008.1 | |
| 20260503025717 | 17 | 0.0 | 1.6 | 0.00 | 0.00 | 0.00 | 74 | 1008.3 | |
| 20260503024717 | 18 | 203 | 4.8 | 8.0 | 0.00 | 0.00 | 0.00 | 72 | 1008.6 |
| 20260503023718 | 18 | 203 | 3.2 | 4.8 | 0.00 | 0.00 | 0.00 | 71 | 1008.5 |
| 20260503022717 | 19 | 203 | 3.2 | 4.8 | 0.00 | 0.00 | 0.00 | 70 | 1008.7 |
| 20260503021717 | 18 | 248 | 1.6 | 1.6 | 0.00 | 0.00 | 0.00 | 71 | 1008.7 |
| 20260503020717 | 18 | 0.0 | 3.2 | 0.00 | 0.00 | 0.00 | 72 | 1009.1 |